Regional Weather Roundup
Issued by NWS

Home | Current Version | Previous Version | Text Only | Print | Product List | Glossary On
Versions: 1 2 3 4 5 6 7 8 9 10 11 12 13 14 15 16 17 18 19 20 21 22 23 24 25 26 27
000
ASUS46 KSEW 210310
RWRWA

WASHINGTON REGIONAL WEATHER ROUNDUP
NATIONAL WEATHER SERVICE SEATTLE WA
700 PM PST FRI JAN 20 2017

NOTE:"FAIR" INDICATES FEW OR NO CLOUDS BELOW 12,000 FEET WITH NO
SIGNIFICANT WEATHER AND/OR OBSTRUCTIONS TO VISIBILITY.

WAZ507-509-555>559-210400-
SEATTLE, TACOMA, EVERETT, AND VICINITY

CITY           SKY/WX    TMP DP  RH WIND       PRES   REMARKS
EVERETT        CLOUDY    47  33  58 SE6       29.14R
BOEING FIELD   CLOUDY    47  34  60 SE7       29.14R
RENTON         CLOUDY    48  34  58 S5        29.14R
SEATAC AIRPORT CLOUDY    46  38  73 S7        29.14R
JBLM-MCCHORD   CLOUDY    41  41  99 S5        29.15R
PUYALLUP         N/A     43  41  93 CALM      29.15R
BREMERTON      CLOUDY    41  39  93 S5        29.17R
JBLM-FT LEWIS  MOCLDY    43  42  99 E5        29.15R
TACOMA NARROWS CLOUDY    44  40  85 W3        29.16R
$$

WAZ001-503-506-510-514-515-210400-
NORTH INTERIOR

CITY           SKY/WX    TMP DP  RH WIND       PRES   REMARKS
BELLINGHAM     CLOUDY    43  35  73 N3        29.14R
FRIDAY HARBOR  CLOUDY    45  36  70 NW3       29.14S
EASTSOUND      CLOUDY    45  41  87 NW3       29.14R
PORT ANGELES   CLOUDY    39  39 100 CALM      29.13R
EDIZ HOOK      CLOUDY    43  40  88 SW3       29.12S
PORT TOWNSEND  CLOUDY    41  39  93 E5        29.14S
NAS WHIDBEY    CLOUDY    47  34  60 E7        29.18R
ARLINGTON      NOT AVBL
BURLINGTON     CLOUDY    46  37  71 NE7       29.15R
$$

WAZ020-022-039-040-504-511-512-210400-
SOUTHWEST INTERIOR

CITY           SKY/WX    TMP DP  RH WIND       PRES   REMARKS
SHELTON        CLOUDY    41  40  96 SW3       29.13R
OLYMPIA        LGT RAIN  42  41  96 CALM      29.15R
CHEHALIS       CLOUDY    43  43 100 CALM      29.14S
KELSO          MOCLDY    39  39 100 CALM      29.15R
VANCOUVER      CLOUDY    40  36  86 SE5       29.15R
SCAPPOOSE, OR  LGT RAIN  38  38 100 CALM      29.14S VSB 3/4
PORTLAND, OR   CLOUDY    38  36  92 E10       29.15R
$$

WAZ021-516-517-210400-
WASHINGTON COAST

CITY           SKY/WX    TMP DP  RH WIND       PRES   REMARKS
FORKS          CLOUDY    41  41 100 CALM      29.11R
HOQUIAM        CLOUDY    44  41  89 NE12      29.11S
ASTORIA, OR    LGT RAIN  46  38  73 SE8       29.10R
$$

WAZ019-023-024-040-567>569-210400-
CASCADE MOUNTAINS AND COLUMBIA GORGE

CITY           SKY/WX    TMP DP  RH WIND       PRES   REMARKS
STAMPEDE PASS  NOT AVBL
TROUTDALE, OR  CLOUDY    40  35  83 E20       29.15R
THE DALLES, OR LGT RAIN  34  33  96 CALM      29.24R FOG
$$

WAZ026-027-041>044-520-521-210400-
EAST SLOPES

CITY           SKY/WX    TMP DP  RH WIND       PRES   REMARKS
OMAK           CLOUDY    36  31  82 N8        29.27F
WENATCHEE      MIX PCPN  32  32 100 NW3       29.25S FOG
ELLENSBURG     CLOUDY    34  32  92 CALM      29.20S FOG
YAKIMA         LGT RAIN  37  34  89 W9        29.21R
$$

WAZ028-034-035-210400-
COLUMBIA BASIN

CITY           SKY/WX    TMP DP  RH WIND       PRES   REMARKS
EPHRATA        CLOUDY    37  29  72 N12       29.21F
MOSES LAKE     CLOUDY    35  32  88 N9        29.22S
PASCO          CLOUDY    34  33  96 SW5       29.23S
HERMISTON, OR  CLOUDY    37  32  82 N8        29.18S
$$

WAZ036>038-210400-
NORTHEAST WASHINGTON

CITY           SKY/WX    TMP DP  RH WIND       PRES   REMARKS
SPOKANE GEIGER MOCLDY    38  29  70 E8        29.22F
SPOKANE FELTS  CLOUDY    37  31  78 NE3       29.23F
FAIRCHILD AFB  CLOUDY    37  32  82 NE12      29.21F
COEURDALENE,ID PTCLDY    35  30  82 N14       29.24F WCI  26
DEER PARK      MOCLDY    37  29  72 NE10      29.24F
$$

WAZ029>033-210400-
SOUTHEAST WASHINGTON

CITY           SKY/WX    TMP DP  RH WIND       PRES   REMARKS
PULLMAN        CLOUDY    39  30  70 E15       29.21F
LEWISTON, ID   CLOUDY    36  30  79 S5        29.22S
WALLA WALLA    CLOUDY    33  29  85 SE5       29.18S
PENDLETON, OR  CLOUDY    40  30  67 CALM      29.15R
$$




USA.gov is the U.S. government's official web portal to all federal, state and local government web resources and services.